GW5264 Weather Reports


time (UTC)temp
F
wind
direction
speed
knots
gust
knots
rain 1hr
in
rain 24hr
in
rain mn
in
humidity
%
barometer
mb
20260502183056 53 180 2.6 2.6 0.00 0.00 0.00 42 1017.7
20260502182551 53 72 0.0 1.7 0.00 0.00 0.00 45 1017.6
20260502182047 53 114 0.9 3.5 0.00 0.00 0.00 42 1017.7
20260502181545 53 222 1.7 13.9 0.00 0.00 0.00 42 1017.5
20260502181044 54 203 5.2 6.1 0.00 0.00 0.00 44 1017.5
20260502180541 56 132 0.0 1.7 0.00 0.00 0.00 42 1017.5
20260502170459 53 181 0.0 0.9 0.00 0.00 0.00 49 1018.0
20260502163943 53 120 0.0 3.5 0.00 0.00 0.00 46 1018.0
20260502163438 56 177 4.3 7.0 0.00 0.00 0.00 43 1018.1
20260502162937 54 50 0.9 1.7 0.00 0.00 0.00 56 1018.2
20260502162433 53 93 0.9 2.6 0.00 0.00 0.00 48 1018.3
20260502161930 53 71 5.2 7.0 0.00 0.00 0.00 49 1018.2
20260502161426 52 351 0.0 1.7 0.00 0.00 0.00 46 1018.3
20260502160924 52 224 1.7 2.6 0.00 0.00 0.00 53 1018.3
20260502160422 52 263 1.7 2.6 0.00 0.00 0.00 50 1018.4
20260502151901 54 209 3.5 5.2 0.00 0.00 0.00 49 1018.5
20260502151357 54 253 2.6 2.6 0.00 0.00 0.00 55 1018.6
20260502150855 52 252 0.9 2.6 0.00 0.00 0.00 51 1018.6
20260502150351 54 316 1.7 3.5 0.00 0.00 0.00 61 1018.6
20260502130739 43 35 0.9 1.7 0.00 0.00 0.00 92 1019.1
20260502130237 43 35 0.9 1.7 0.00 0.00 0.00 92 1018.7
20260502123723 41 35 0.0 0.0 0.00 0.00 0.00 95 1018.9
20260502123219 41 35 0.0 0.0 0.00 0.00 0.00 96 1018.8
20260502122716 41 35 0.0 0.0 0.00 0.00 0.00 96 1018.7
20260502122212 41 35 0.0 0.0 0.00 0.00 0.00 97 1018.9
20260502121711 40 35 0.0 0.0 0.00 0.00 0.00 98 1019.0
20260502121208 40 35 0.0 0.0 0.00 0.00 0.00 98 1019.1
20260502120704 40 35 0.0 0.0 0.00 0.00 0.00 98 1019.0
20260502120201 40 35 0.0 0.0 0.00 0.00 0.00 98 1018.9
20260502115659 40 35 0.0 0.0 0.00 0.00 0.00 99 1019.0
20260502115155 40 35 0.0 0.0 0.00 0.00 0.00 99 1019.3
20260502114651 40 35 0.0 0.0 0.00 0.00 0.00 99 1018.9
20260502114149 40 35 0.0 0.0 0.00 0.00 0.00 99 1018.7
20260502113646 39 35 0.0 0.0 0.00 0.00 0.00 99 1018.8
20260502113144 40 35 0.0 0.0 0.00 0.00 0.00 99 1018.6
20260502112642 39 35 0.0 0.0 0.00 0.00 0.00 99 1018.8
20260502112139 39 35 0.0 0.0 0.00 0.00 0.00 99 1018.7
20260502111636 39 35 0.0 0.0 0.00 0.00 0.00 99 1018.8
20260502111134 39 35 0.0 0.0 0.00 0.00 0.00 99 1018.7
20260502110631 39 35 0.0 0.0 0.00 0.00 0.00 99 1018.6
20260502110128 39 35 0.0 0.0 0.00 0.00 0.00 99 1018.7
20260502105626 38 35 0.0 0.0 0.00 0.00 0.00 99 1018.6
20260502105123 38 35 0.0 0.0 0.00 0.00 0.00 99 1018.6
20260502104620 38 35 0.0 0.0 0.00 0.00 0.00 99 1018.6
20260502104117 38 35 0.0 0.0 0.00 0.00 0.00 99 1018.4
20260502103615 38 35 0.0 0.0 0.00 0.00 0.00 99 1018.7
20260502103113 38 35 0.0 0.0 0.00 0.00 0.00 99 1018.9
20260502102609 38 35 0.0 0.9 0.00 0.00 0.00 99 1018.9
20260502102106 38 35 0.0 0.0 0.00 0.00 0.00 99 1019.0
20260502101604 38 35 0.0 0.0 0.00 0.00 0.00 99 1019.0
20260502101102 38 35 0.0 0.0 0.00 0.00 0.00 99 1018.9
20260502100600 38 35 0.0 0.0 0.00 0.00 0.00 99 1018.8
20260502091032 38 35 0.0 0.0 0.00 0.00 0.00 98 1019.1
20260502090529 38 35 0.0 0.0 0.00 0.00 0.00 98 1018.9
20260502071424 41 35 0.0 0.0 0.00 0.00 0.00 94 1018.6
20260502070922 41 35 0.0 0.0 0.00 0.00 0.00 94 1018.6
20260502070420 41 35 0.0 0.0 0.00 0.00 0.00 93 1018.4
20260502065918 42 35 0.0 0.0 0.00 0.00 0.00 93 1018.5
20260502065416 42 35 0.0 0.0 0.00 0.00 0.00 92 1018.4
20260502064914 42 35 0.0 0.0 0.00 0.00 0.00 92 1018.6
20260502064411 42 35 0.0 0.0 0.00 0.00 0.00 92 1018.5
20260502063908 42 35 0.0 0.0 0.00 0.00 0.00 91 1018.4
20260502063406 42 35 0.0 1.7 0.00 0.00 0.00 91 1018.5
20260502062903 42 2 0.0 0.9 0.00 0.00 0.00 91 1018.7
20260502062400 42 318 0.0 0.9 0.00 0.00 0.00 90 1018.6
20260502061859 43 356 0.0 0.9 0.00 0.00 0.00 89 1018.6
20260502061357 43 338 0.9 1.7 0.00 0.00 0.00 88 1018.5
20260502060852 43 346 0.9 0.9 0.00 0.00 0.00 88 1018.5
20260502060347 44 351 0.0 0.0 0.00 0.00 0.00 87 1018.6
20260502055845 44 328 0.9 0.9 0.00 0.00 0.00 86 1018.8
20260502055343 44 327 0.9 0.9 0.00 0.00 0.00 85 1018.6
20260502054842 45 12 0.9 0.9 0.00 0.00 0.00 84 1018.8
20260502054339 45 49 0.9 0.9 0.00 0.00 0.00 83 1018.8
20260502053837 45 39 1.7 1.7 0.00 0.00 0.00 83 1018.7
20260502053334 46 335 0.9 0.9 0.00 0.00 0.00 81 1018.7
20260502052831 46 44 1.7 2.6 0.00 0.00 0.00 81 1018.7
20260502052329 46 26 0.0 0.0 0.00 0.00 0.00 81 1018.8
20260502051827 46 46 0.0 0.0 0.00 0.00 0.00 80 1018.7
20260502051326 47 47 0.0 0.9 0.00 0.00 0.00 78 1018.6
20260502050821 47 46 0.0 0.0 0.00 0.00 0.00 79 1018.8
20260502050318 47 47 0.0 0.9 0.00 0.00 0.00 77 1018.6
20260502045815 47 43 0.9 0.9 0.00 0.00 0.00 77 1018.6
20260502045312 47 35 0.0 0.9 0.00 0.00 0.00 77 1018.6
20260502044809 48 51 0.9 1.7 0.00 0.00 0.00 75 1018.6
20260502044305 48 30 0.0 0.0 0.00 0.00 0.00 75 1018.7
20260502043802 49 26 0.9 0.9 0.00 0.00 0.00 75 1018.8
20260502043259 49 26 0.0 0.9 0.00 0.00 0.00 72 1018.8
20260502042759 49 48 0.9 5.2 0.00 0.00 0.00 68 1018.9
20260502042256 49 325 0.0 0.0 0.00 0.00 0.00 73 1018.8
20260502041754 50 65 0.0 1.7 0.00 0.00 0.00 70 1018.8
20260502041251 50 320 0.9 0.9 0.00 0.00 0.00 71 1018.8
20260502040748 50 44 0.0 5.2 0.00 0.00 0.00 69 1018.7
20260502040245 50 327 0.0 0.0 0.00 0.00 0.00 70 1018.6
20260502035741 50 334 0.0 0.0 0.00 0.00 0.00 68 1018.5
20260502035238 51 336 0.0 0.9 0.00 0.00 0.00 69 1018.6
20260502034735 51 347 0.0 0.9 0.00 0.00 0.00 71 1018.8
20260502034233 51 10 0.9 3.5 0.00 0.00 0.00 68 1018.7
20260502033731 51 22 0.0 0.9 0.00 0.00 0.00 70 1018.7
20260502033229 51 317 0.0 0.9 0.00 0.00 0.00 72 1018.7
20260502032725 51 304 1.7 1.7 0.00 0.00 0.00 69 1018.6
20260502032221 51 310 1.7 1.7 0.00 0.00 0.00 71 1018.7
20260502031719 51 37 0.9 1.7 0.00 0.00 0.00 75 1018.6
20260502031217 52 321 0.9 1.7 0.00 0.00 0.00 71 1018.8
20260502030716 52 332 1.7 1.7 0.00 0.00 0.00 73 1018.7
20260502030214 52 315 1.7 2.6 0.00 0.00 0.00 71 1018.6
20260502025710 52 318 1.7 3.5 0.00 0.00 0.00 72 1018.3
20260502025208 52 279 1.7 1.7 0.00 0.00 0.00 73 1018.4
20260502024705 52 85 1.7 1.7 0.00 0.00 0.00 74 1018.3
20260502024204 52 86 0.9 0.9 0.00 0.00 0.00 73 1018.5
20260502023701 52 86 0.9 0.9 0.00 0.00 0.00 73 1018.3
20260502023158 52 85 0.9 1.7 0.00 0.00 0.00 74 1018.4
20260502022655 52 211 0.9 1.7 0.00 0.00 0.00 73 1018.2
20260502022152 53 236 1.7 2.6 0.00 0.00 0.00 73 1018.4
20260502021649 53 276 0.0 0.0 0.00 0.00 0.00 72 1018.1
20260502021146 53 276 1.7 2.6 0.00 0.00 0.00 71 1018.1
20260502020644 53 253 0.9 7.0 0.00 0.00 0.00 70 1017.6
20260502020140 53 324 0.9 1.7 0.00 0.00 0.00 71 1017.8
20260502015638 52 81 1.7 1.7 0.00 0.00 0.00 71 1017.6
20260502015134 52 50 3.5 5.2 0.00 0.00 0.00 75 1017.6
20260502014632 52 52 0.0 0.9 0.00 0.00 0.00 75 1017.5
20260502014129 52 53 0.0 0.0 0.00 0.00 0.00 77 1017.3
20260502013625 52 53 0.0 0.0 0.00 0.00 0.00 77 1017.3
20260502013120 52 53 0.0 0.0 0.00 0.00 0.00 76 1017.4
20260502012618 52 53 0.0 0.0 0.00 0.00 0.00 76 1017.1
20260502012116 52 53 0.0 0.0 0.00 0.00 0.00 77 1017.2
20260502011613 53 53 0.0 0.0 0.00 0.00 0.00 76 1017.1
20260502011108 53 53 0.0 0.0 0.00 0.00 0.00 74 1017.1
20260502010606 53 53 0.0 0.0 0.00 0.00 0.00 71 1017.1
20260502005600 53 53 0.0 0.9 0.00 0.00 0.00 71 1017.0
20260502005058 53 52 0.9 0.9 0.00 0.00 0.00 72 1016.6
20260502004553 54 52 0.0 0.0 0.00 0.00 0.00 68 1016.6
20260502004050 54 52 0.9 1.7 0.00 0.00 0.00 65 1016.4
20260502003548 54 338 0.9 1.7 0.00 0.00 0.00 66 1016.4
20260502003045 54 308 1.7 2.6 0.00 0.00 0.00 67 1016.3
20260502002541 55 48 1.7 2.6 0.00 0.00 0.00 65 1016.6
20260502002038 55 20 1.7 1.7 0.00 0.00 0.00 66 1016.4
20260502001536 55 2 0.9 1.7 0.00 0.00 0.00 66 1016.2
20260502001033 55 204 1.7 3.5 0.00 0.00 0.00 63 1016.1
20260502000532 55 85 1.7 1.7 0.00 0.00 0.00 63 1016.0
20260502000028 55 68 2.6 7.8 0.00 0.00 0.00 61 1015.6
20260501235524 56 21 4.3 9.6 0.00 0.00 0.00 61 1015.7
20260501235020 56 348 1.7 2.6 0.00 0.00 0.00 63 1015.2
20260501234516 56 43 0.0 0.9 0.00 0.00 0.00 65 1015.4
20260501234014 56 319 0.0 2.6 0.00 0.00 0.00 63 1015.3
20260501233512 56 160 0.0 2.6 0.00 0.00 0.00 60 1014.8
20260501233008 56 73 0.9 3.5 0.00 0.00 0.00 62 1014.7
20260501232504 56 223 0.9 5.2 0.00 0.00 0.00 62 1014.8
20260501232002 57 178 0.9 0.9 0.00 0.00 0.00 67 1014.7
20260501231500 57 178 0.0 1.7 0.00 0.00 0.00 69 1014.9
20260501230958 57 326 0.0 0.9 0.00 0.00 0.00 71 1014.9
20260501230457 57 319 1.7 1.7 0.00 0.00 0.00 68 1014.8
20260501225954 57 350 0.9 1.7 0.00 0.00 0.00 69 1015.0
20260501225451 57 339 0.0 1.7 0.00 0.00 0.00 68 1014.8
20260501224947 57 307 0.9 3.5 0.00 0.00 0.00 67 1014.8
20260501224445 57 255 1.7 3.5 0.00 0.00 0.00 67 1014.9
20260501223942 58 100 0.9 1.7 0.00 0.00 0.00 65 1014.9
20260501223438 58 256 3.5 6.1 0.00 0.00 0.00 64 1014.6
20260501222933 58 304 2.6 2.6 0.00 0.00 0.00 63 1014.6
20260501222431 60 161 4.3 7.0 0.00 0.00 0.00 61 1014.5
20260501221927 60 288 2.6 6.1 0.00 0.00 0.00 59 1014.2
20260501221424 61 151 0.0 0.0 0.00 0.00 0.00 56 1014.2
20260501220922 60 151 0.9 1.7 0.00 0.00 0.00 57 1014.4
20260501220420 60 31 0.9 1.7 0.00 0.00 0.00 58 1014.5
20260501215915 60 136 1.7 1.7 0.00 0.00 0.00 59 1014.1
20260501215412 61 357 1.7 8.7 0.00 0.00 0.00 55 1014.2
20260501214908 61 325 0.9 2.6 0.00 0.00 0.00 58 1013.9
20260501214403 61 297 1.7 6.1 0.00 0.00 0.00 53 1014.0
20260501213859 61 317 2.6 3.5 0.00 0.00 0.00 52 1013.7
20260501213356 62 156 2.6 3.5 0.00 0.00 0.00 51 1013.4
20260501212851 63 82 0.9 5.2 0.00 0.00 0.00 48 1013.2
20260501212348 64 312 2.6 2.6 0.00 0.00 0.00 53 1013.2
20260501211845 64 241 1.7 1.7 0.00 0.00 0.00 44 1013.2
20260501211342 64 218 0.9 0.9 0.00 0.00 0.00 45 1013.1
20260501210839 65 238 2.6 2.6 0.00 0.00 0.00 42 1013.2
20260501210337 64 117 0.9 3.5 0.00 0.00 0.00 42 1013.3
20260501205833 64 48 2.6 5.2 0.00 0.00 0.00 44 1013.2
20260501205330 65 312 0.0 0.9 0.00 0.00 0.00 39 1013.0
20260501204826 65 251 1.7 6.1 0.00 0.00 0.00 38 1012.8
20260501204323 66 66 1.7 3.5 0.00 0.00 0.00 40 1012.9
20260501203819 67 250 3.5 7.8 0.00 0.00 0.00 37 1012.7
20260501203317 68 135 1.7 7.8 0.00 0.00 0.00 35 1012.6
20260501202814 67 76 3.5 6.1 0.00 0.00 0.00 35 1012.8
20260501202310 66 141 2.6 3.5 0.00 0.00 0.00 36 1012.7
20260501201808 66 161 2.6 7.8 0.00 0.00 0.00 33 1012.6
20260501201304 67 126 2.6 2.6 0.00 0.00 0.00 32 1012.4
20260501200800 69 37 1.7 3.5 0.00 0.00 0.00 31 1012.6
20260501200258 69 171 2.6 6.1 0.00 0.00 0.00 30 1012.6
20260501195755 69 156 0.9 7.0 0.00 0.00 0.00 36 1012.5
20260501195251 69 138 4.3 7.0 0.00 0.00 0.00 31 1012.6
20260501194747 68 218 1.7 6.1 0.00 0.00 0.00 30 1012.6
20260501194243 69 238 2.6 12.2 0.00 0.00 0.00 32 1012.8
20260501193740 69 191 2.6 5.2 0.00 0.00 0.00 31 1012.9
20260501193238 69 147 3.5 7.8 0.00 0.00 0.00 29 1012.8
20260501192735 68 266 0.9 6.1 0.00 0.00 0.00 27 1013.0
20260501192232 68 144 1.7 1.7 0.00 0.00 0.00 29 1012.9
20260501191730 69 232 2.6 3.5 0.00 0.00 0.00 28 1012.7
20260501191227 69 78 1.7 2.6 0.00 0.00 0.00 27 1013.0
20260501190723 67 209 4.3 7.0 0.00 0.00 0.00 27 1013.2
20260501190219 67 250 3.5 7.0 0.00 0.00 0.00 28 1013.4
20260501185715 67 138 1.7 3.5 0.00 0.00 0.00 29 1013.0
20260501185211 69 242 5.2 8.7 0.00 0.00 0.00 27 1013.5
20260501184707 68 257 1.7 7.8 0.00 0.00 0.00 27 1013.6
20260501184202 68 260 2.6 7.0 0.00 0.00 0.00 32 1013.4
20260501183659 69 161 2.6 6.1 0.00 0.00 0.00 24 1013.1